Retour au catalogue

CZ-6A DEB

ActifSSO
NORAD 54905·DEBRIS·🇨🇳 China

Lancé Nov 11, 2022 depuis Taiyuan Satellite Launch Center

Loading…

Prochains Passages (prochaines 24 heures)

TLE

FraisSource: Space-Track

Époque: Sep 14, 2026, 03:31 UTC

1 54905U 22151QS  26257.14674115  .00001294  00000-0  35066-3 0  9994
2 54905  98.7043 324.8481 0080448  17.0292 343.3571 14.47575054199356

Suivez CZ-6A DEB en temps réel avec AllMySat

Download on the App Store